Location: Stara Lesna
(49.1528°N, 20.2911°E)
Time: 03:18:56
(UTC+02:00)

IRAS Rocket - Pass Details

Date: 13 July 2020
Orbit: 848 x 877 km, 100.1° (Epoch: 11 August)

Event Time Altitude Azimuth Distance (km) Brightness Sun altitude
Exits shadow 02:20:27 23° 186° (S) 1,710 5.2 -15.9°
Maximum altitude 02:23:46 58° 257° (WSW) 991 4.3 -15.7°
Drops below altitude 10° 02:29:12 10° 336° (NNW) 2,492 7.2 -15.3°
Sets 02:31:38 0° 341° (NNW) 3,435 8.1 -15.2°
